Showing default

BISONSAT, 40968

Orbit data source: Space-Track

BISONSAT, 40968 is a payload satellite owned by Salish Kootenai (US) in LEO that was launched on Thu, 08 Oct 2015 UTC via an ATLAS V 401 launch vehicle from the Air Force Western Test Range (AFWTR). Payload-class satellites include a variety of spacecraft equipped with specific instruments for various scientific and technological missions. These include communications satellites like Starlink; space stations such as the ISS; scientific satellites like the Hubble; Earth observation satellites from companies like Planet Labs, Umbra, and HawkEye 360; GPS; miniature CubeSats for education and research; and military/defense satellites.

Loading next visibility...
Identifier
40968, 2015-058E
Orbit
LEO
Country
Flag of USUS
Related business
Manufacturer
Salish Kootenai
Mission
Operational Amateur Technology
Bus & Motor
CUBESAT 1U, Unknown motor
Mass
1 kg wet, 1 kg dry
Launch date (UTC)
2015-10-08 (10 years ago)
Launch vehicle
ATLAS V 401
Launch site
Air Force Western Test Range (AFWTR)
Object type
Payload
Rocket body
Debris
Shape & HBR
Box, 0.1 m
Radar Cross Section
0.015 m², Small (<0.1 m²)

Expand to show TLE details & history
Last TLE update: 1 day ago

TLE from 1 day ago
0 BISONSAT
1 40968U 15058E   25301.25879816  .00004721  00000-0  39462-3 0  9994
2 40968  64.7754 263.9570 0129084 145.5831 215.3730 14.93428166 81997
Epoch: 2025-10-28T06:12Z
TLE epoch observation values (Epoch: 2025-10-28T06:12:40.161Z)
Latitude
0.00002°
Longitude
133.94081°
Altitude
662.972 km
Speed
7.486 km/s
True Right ascension
17h 35m 49s
True Declination
0° 00' 00"
Sunlit
Object was in daylight at epoch
Visualization orbit readout
Latitude
Unknown
Longitude
Unknown
Altitude
Unknown
Speed
Unknown
Apparent Right ascension
Unknown
Apparent Declination
Unknown
Sunlit
N/A
Visualization observer readout
Local Sidereal Time
08:18:13
Azimuth
Unknown
Elevation
Unknown
Doppler factor
Unknown
Orbital elements
Apogee altitude
675.715 km
Perigee altitude
495.928 km
Semi-major axis
6,963.958 km
Eccentricity
0.01291
Inclination
64.7754°
RAAN
263.957°
Arg. of periapsis
145.5831°
True anomaly
214.52786°
Mean anomaly
215.373°
Eccentric anomaly
214.94932°
Mean motion
3.73473 °/min
Orbital period
96.39 mins
BSTAR
0.00039462
Loading maneuver chart data...
Computing Atmospheric mass density...
Loading historical data...
Loading historical data...
Loading historical data...
Loading historical data...
Loading historical data...
Loading historical data...
Loading historical data...

Documentation

Showing up to 5 results
|